Disclaimer

Please do not use the information listed here in-flight or in-navigation, as they are not provided to us by the airports but are provided by volunteers, so they might be outdated.

Search


Regions


Airport information page

No radio frequency information is available.

Airport informations:
Latitude: 36° 15' 57.99" N
Longitude: 120° 22' 27.97" E
Elevation: 33 feet - 10 meters
Operating hours: Remarks
Operating agency: Civil government, landing fees and diplomatic clearance may be required
Timezone: UTC+8
Fuel: Jet fuel avaiable but type is unknown.

Runway information:
17/35 - 11155 x 148 feet< - >3400 x 45 meters

Recent METARs:
ZSQD 170900Z VRB01MPS CAVOK 04/M15 Q1027 NOSIG
ZSQD 170900Z VRB01MPS CAVOK 04/M15 Q1027 NOSIG
ZSQD 171000Z 21001MPS 6000 NSC 00/M13 Q1027 NOSIG

Airport on the map: